Volver al catálogo

THORAD AGENA D DEB

ActivoPO
NORAD 4928·DEBRIS·🇺🇸 United States

Lanzado Apr 8, 1970 desde Vandenberg Space Force Base

Loading…

Próximos Pases (próximas 24 horas)

TLE

ActualizadoSource: Space-Track

Época: Sep 14, 2026, 04:03 UTC

1 04928U 70025FU  26257.16908647  .00002080  00000-0  69295-2 0  9993
2 04928  99.7469 158.4349 0434353 120.6511  35.5506 12.73308622610220

Sigue THORAD AGENA D DEB en tiempo real con AllMySat

Download on the App Store